Location: Bennemühlen
(52.5740°N, 9.7135°E)
Time: 20:30:39
(UTC+00:00)

USA 59 Rocket - Pass Details

Date: 19 May 2025
Orbit: 373 x 1695 km, 63.3° (Epoch: 20 June)

Event Time Altitude Azimuth Distance (km) Brightness Sun altitude
Exits shadow 22:10:11 37° 127° (SE) 634 -0.3 -16.0°
Drops below altitude 10° 22:12:55 10° 60° (ENE) 1,395 2.1 -16.1°
Sets 22:14:56 0° 51° (NE) 2,247 3.3 -16.2°
